Showing default

YAOGAN-31 A, 43275

Orbit data source: Space-Track

YAOGAN-31 A, 43275 is a payload satellite owned by PLA SSF (CN) in LEO that was launched on Tue, 10 Apr 2018 UTC via a CHANG ZHENG 4C launch vehicle from the Jiuquan Satellite Launch Center, China (JSC). Payload-class satellites include a variety of spacecraft equipped with specific instruments for various scientific and technological missions. These include communications satellites like Starlink; space stations such as the ISS; scientific satellites like the Hubble; Earth observation satellites from companies like Planet Labs, Umbra, and HawkEye 360; GPS; miniature CubeSats for education and research; and military/defense satellites.

Loading next visibility...
Identifier
43275, 2018-034A
Orbit
LEO
Country
Flag of CNCN / PRC
Related business
Manufacturer
DFH
Mission
Operational Defense Sigint
Bus & Motor
JB-8B, Unknown motor
Mass
~500 kg wet, ~500 kg dry
Launch date (UTC)
2018-04-10 (8 years ago)
Launch vehicle
CHANG ZHENG 4C
Launch site
Jiuquan Satellite Launch Center, China (JSC)
Object type
Payload
Rocket body
Debris
Shape & HBR
Box + 2 Pan, 0.5 m
Radar Cross Section
0.446 m², Large (>1 m²)

Expand to show TLE details & history
Last TLE update: 5 hours ago

TLE from 5 hours ago
0 YAOGAN-31 A
1 43275U 18034A   26123.61732832 -.00000097  00000-0 -86624-5 0  9992
2 43275  63.3954 205.9599 0271485   7.2878 353.1972 13.45457204396105
Epoch: 2026-05-03T14:48Z
TLE epoch observation values (Epoch: 2026-05-03T14:48:57.166Z)
Latitude
-0.00002°
Longitude
122.20339°
Altitude
889.553 km
Speed
7.507 km/s
True Right ascension
13h 43m 50s
True Declination
0° 00' 00"
Sunlit
Object was in full shadow at epoch
Visualization orbit readout
Latitude
Unknown
Longitude
Unknown
Altitude
Unknown
Speed
Unknown
Apparent Right ascension
Unknown
Apparent Declination
Unknown
Sunlit
N/A
Visualization observer readout
Local Sidereal Time
03:49:36
Azimuth
Unknown
Elevation
Unknown
Doppler factor
Unknown
Orbital elements
Apogee altitude
1,290.538 km
Perigee altitude
885.158 km
Semi-major axis
7,465.985 km
Eccentricity
0.02715
Inclination
63.3954°
RAAN
205.9599°
Arg. of periapsis
7.2878°
True anomaly
352.81587°
Mean anomaly
353.1972°
Eccentric anomaly
353.00784°
Mean motion
3.36444 °/min
Orbital period
107 mins
BSTAR
-0.0000086624
Loading maneuver chart data...
Computing Atmospheric mass density...
Loading historical data...
Loading historical data...
Loading historical data...
Loading historical data...
Loading historical data...
Loading historical data...
Loading historical data...

Documentation

Showing up to 5 results
|